#timestamp,LO_Frequency,Hit 
1502805615.6,286046938.7,N
1502805635.4,286046937.4,N
1502805655.3,286046946.1,N
1502805675.1,286046943.7,N
1502805676.0,286046943.7,N
1502805695.8,286046947.2,N
1502805715.6,286046959.0,N
1502805735.5,286046963.9,N
1502805755.3,286046954.2,N
1502805775.1,286046943.8,N
1502805795.9,286046939.6,N
1502805815.7,286046941.1,N
1502805835.5,286046940.3,N
1502805855.4,286046931.1,N
1502805875.2,286046932.3,N
1502805895.0,286046930.6,N
1502805895.9,286046930.6,N
1502805915.8,286046925.9,N
1502805935.6,286046925.2,N
1502805955.4,286046922.5,N
1502805975.2,286046919.4,N
1502805995.1,286046915.3,N
1502805996.0,286046915.3,N
1502806015.8,286046912.1,N
1502806035.6,286046912.1,N
1502806055.5,286046909.4,N
1502806075.3,286046908.7,N
1502806095.1,286046910.3,N
1502806115.9,286046911.3,N
1502806135.7,286046907.6,N
1502806155.5,286046915.0,N
1502806175.4,286046920.0,N
1502806195.2,286046925.9,N
1502806215.0,286046924.2,N
1502806215.9,286046924.2,N
1502806235.7,286046922.3,N
1502806255.6,286046920.3,N
1502806275.4,286046919.9,N
1502806295.2,286046921.2,N
1502806315.1,286046916.7,N
1502806316.0,286046916.7,N
1502806335.8,286046916.4,N
1502806355.6,286046909.4,N
1502806375.5,286046906.9,N
1502806395.3,286046907.0,N
1502806415.1,286046911.7,N
1502806435.9,286046908.8,N
1502806455.7,286046906.3,N
1502806475.5,286046906.4,N
1502806495.3,286046906.8,N
1502806515.2,286046897.8,N
1502806535.0,286046896.0,N
1502806535.9,286046896.0,N
1502806555.7,286046901.3,N
1502806575.6,286046898.0,N
1502806595.4,286046915.9,N
1502806615.2,286046926.6,N
1502806635.1,286046932.7,N
1502806636.0,286046932.7,N
1502806655.8,286046934.4,N
1502806675.6,286046935.1,N
1502806695.5,286046927.1,N
1502806715.3,286046925.3,N
1502806735.1,286046928.1,N
1502806755.9,286046928.4,N
1502806775.7,286046931.8,N
1502806795.5,286046938.5,N
1502806815.3,286046940.0,N
1502806835.2,286046947.7,N
1502806855.0,286046944.1,N
1502806855.9,286046944.1,N
1502806875.7,286046949.5,N
1502806895.6,286046948.8,N
1502806915.4,286046950.0,N
1502806935.2,286046944.8,N
1502806955.1,286046943.2,N
1502806956.0,286046943.2,N
1502806975.8,286046946.5,N
1502806995.6,286046957.1,N
1502807015.5,286046975.3,N
1502807035.3,286046974.0,N
1502807055.1,286046970.5,N
1502807075.8,286046971.1,N
1502807095.7,286046966.5,N
1502807115.5,286046961.3,N
1502807135.3,286046961.0,N
1502807155.2,286046959.1,N
1502807175.9,286046964.3,N
1502807195.7,286046975.6,N
1502807215.6,286046978.9,N
1502807235.4,286046979.4,N
1502807255.2,286046987.5,N
1502807275.1,286046997.2,N
1502807276.0,286046997.2,N
1502807295.8,286047015.6,N
1502807315.6,286047004.5,N
1502807335.4,286047000.9,N
1502807355.3,286046992.2,N
1502807375.1,286046991.8,N
1502807395.8,286046987.7,N
1502807415.7,286046981.4,N
1502807435.5,286046976.2,N
1502807455.3,286046971.5,N
1502807475.2,286046965.0,N
1502807495.9,286046967.8,N
1502807515.7,286046979.2,N
1502807535.6,286046975.7,N
1502807555.4,286046969.8,N
1502807575.2,286046967.4,N
1502807595.0,286046963.5,N
1502807595.9,286046963.5,N
1502807615.8,286046959.9,N
1502807635.6,286046956.2,N
1502807655.4,286046954.4,N
1502807675.3,286046945.5,N
1502807695.1,286046956.7,N
1502807715.8,286046951.0,N
1502807735.7,286046942.9,N
1502807755.5,286046942.4,N
1502807775.3,286046944.7,N
1502807795.2,286046945.3,N
1502807815.9,286046956.6,N
1502807835.7,286046954.8,N
1502807855.5,286046954.2,N
1502807875.4,286046954.9,N
1502807895.2,286046951.7,N
1502807915.0,286046945.2,N
1502807915.9,286046945.2,N
1502807935.8,286046937.4,N
1502807955.6,286046936.6,N
1502807975.4,286046951.1,N
1502807995.3,286046951.9,N
1502808015.1,286046952.8,N
1502808016.0,286046952.8,N
1502808035.8,286046944.0,N
1502808055.7,286046938.3,N
1502808075.5,286046944.4,N
1502808095.3,286046947.4,N
1502808115.1,286046950.2,N
1502808135.9,286046942.2,N
1502808155.7,286046945.7,N
1502808175.5,286046945.8,N
1502808195.4,286046942.6,N
1502808215.2,286046940.3,N
1502808235.0,286046938.2,N
1502808235.9,286046938.2,N
1502808255.8,286046945.6,N
1502808275.6,286046944.2,N
1502808295.4,286046935.8,N
1502808315.3,286046931.4,N
1502808335.1,286046927.6,N
1502808336.0,286046927.6,N
1502808355.8,286046932.0,N
1502808375.6,286046929.8,N
1502808395.5,286046928.2,N
1502808415.3,286046931.3,N
1502808435.1,286046936.6,N
1502808455.9,286046936.4,N
1502808475.7,286046932.4,N
1502808495.5,286046926.9,N
1502808515.4,286046924.8,Y
1502808535.2,286046974.2,N
1502808555.0,286046973.6,N
1502808555.9,286046973.6,N
1502808575.8,286046969.3,N
1502808595.6,286046967.9,N
1502808615.4,286046971.1,N
1502808635.3,286046972.8,N
1502808655.1,286046976.1,N
1502808656.0,286046976.1,N
1502808675.8,286046971.6,N
1502808695.7,286046965.7,N
1502808715.5,286046965.4,N
1502808735.3,286046964.2,N
1502808755.1,286046966.4,N
1502808775.9,286046966.0,N
1502808795.7,286046962.3,N
1502808815.5,286046961.8,N
1502808835.4,286046966.0,N
1502808855.2,286046973.1,N
1502808875.0,286046974.7,N
1502808875.9,286046974.7,N
1502808895.8,286046973.5,N
1502808915.6,286046968.4,N
1502808935.4,286046964.3,N
1502808955.3,286046965.6,N
1502808975.1,286046976.6,N
1502808976.0,286046976.6,N
1502808995.8,286046987.8,N
1502809015.7,286046997.8,N
1502809035.5,286047002.1,N
1502809055.3,286047004.7,N
1502809075.1,286046993.4,N
1502809095.9,286046989.7,N
1502809115.7,286046982.5,N
1502809135.0,286046980.8,N
1502809136.0,286046980.8,N
1502809155.8,286046978.5,N
1502809175.6,286046978.1,N
1502809195.4,286046977.0,N
